Theta_e
319 317 317 320 323 319 316 318 321 323 325 327 330 328 326 334 337 329 325 326 325 325 324 324 323 323 322 322 321 321 320 318 318 317 315 313 311 311 311 311 311 312 313 315 318 320 322 323 324 324 325 325 326 326 326 326 325 326 326 325 325 326 327 326 327 327 326 325 324 324 323 323 323 322 322 322 322 320 319 319 319 318 317 316 315 315 314
319 317 316 320 323 321 317 317 319 321 324 325 327 328 328 330 329 326 325 326 323 322 323 323 322 321 320 320 320 320 318 317 316 315 312 311 310 309 309 308 308 308 308 309 311 314 316 318 319 321 321 322 323 323 324 324 325 325 325 325 325 324 325 325 325 325 325 325 325 325 324 324 323 323 322 322 322 320 319 320 320 319 319 318 317 316 315
318 316 316 317 318 317 317 317 318 319 323 325 326 327 327 326 324 322 322 323 322 320 320 321 321 320 320 319 318 317 316 315 314 312 311 310 309 308 308 307 307 307 307 308 308 309 311 311 312 314 316 318 319 321 321 322 322 323 323 323 323 322 322 323 323 324 324 324 324 324 324 323 323 323 323 322 321 320 319 320 320 320 319 319 318 318 317
320 318 317 317 316 316 317 319 317 317 321 325 325 325 326 325 322 321 321 322 321 320 320 320 320 320 319 318 316 315 314 313 312 311 310 309 308 308 307 307 306 306 306 306 306 307 308 309 309 309 310 312 314 317 319 319 318 317 317 317 319 318 319 320 321 321 322 322 323 323 323 323 323 323 323 322 321 321 320 319 320 320 320 320 320 319 319
320 318 319 320 319 320 320 319 316 314 318 322 322 322 323 322 320 320 321 321 319 319 320 320 319 317 315 314 314 314 312 310 310 309 308 307 307 307 307 306 306 305 305 305 305 306 307 307 308 308 308 309 310 312 314 314 314 314 314 314 315 314 315 316 318 318 319 320 320 321 322 321 322 322 322 322 322 321 321 321 320 320 320 320 320 319 319
318 318 320 322 323 322 319 316 314 314 318 321 321 322 322 320 318 318 319 319 318 318 317 316 313 311 310 310 311 310 309 308 307 307 307 307 307 307 307 306 306 305 305 305 306 306 307 307 307 307 308 308 308 309 312 312 312 313 314 314 314 314 313 314 314 314 315 315 316 318 319 319 320 320 320 320 320 321 321 321 321 321 321 321 321 320 319
318 318 321 323 322 319 317 314 312 313 316 318 319 319 318 318 318 317 317 318 316 313 312 311 310 309 309 309 309 308 308 308 308 308 308 308 308 308 308 308 307 306 306 306 307 307 307 307 307 308 308 307 307 308 310 310 310 311 312 312 312 312 313 312 313 313 314 314 314 315 316 316 317 318 319 319 319 320 320 320 320 319 320 321 321 321 320
318 319 321 321 318 315 314 314 311 311 313 315 316 318 317 316 317 316 316 316 313 310 309 309 309 309 309 308 308 308 308 308 308 308 308 307 307 307 306 306 306 306 306 306 306 306 306 307 308 308 308 308 307 308 309 309 310 310 311 311 311 311 311 311 311 312 313 314 315 315 315 316 316 317 317 318 319 319 319 319 319 318 318 318 319 320 320
318 320 319 317 317 315 314 314 311 309 310 311 313 317 317 315 315 316 315 313 311 309 309 309 309 308 308 308 308 307 307 307 307 307 306 305 305 304 303 303 303 304 304 305 305 305 305 306 307 307 307 307 307 307 308 308 309 309 309 310 310 309 309 309 309 309 309 311 312 313 314 315 315 315 316 316 317 318 318 318 318 317 318 318 318 318 318
317 320 319 316 318 317 314 313 311 308 308 308 311 317 317 314 313 313 313 311 310 309 309 309 309 308 308 308 307 306 306 306 305 305 304 303 302 303 303 303 303 303 304 305 305 306 306 306 306 306 306 306 307 307 307 307 308 308 308 308 308 308 308 307 305 305 305 306 307 309 309 311 312 312 313 314 315 316 317 317 317 316 316 315 315 315 315
316 318 318 317 317 316 312 312 311 308 306 308 312 317 317 314 312 310 309 309 308 308 308 309 308 308 308 308 306 305 304 304 303 303 302 301 301 302 302 301 302 302 303 303 303 304 305 306 306 306 305 305 306 306 306 306 307 307 307 307 306 306 304 302 301 300 301 302 303 304 305 307 308 309 309 310 311 312 312 313 313 314 314 314 314 315 315
315 316 317 315 314 313 310 309 310 308 306 309 314 317 316 314 311 310 308 308 308 308 308 308 308 308 307 306 304 303 303 303 303 302 301 300 299 300 300 300 300 300 301 300 300 301 302 302 303 303 303 304 304 303 302 303 304 304 303 302 301 301 300 299 299 299 300 300 300 300 301 302 303 304 304 304 304 305 306 307 308 309 311 312 313 314 314
315 316 315 313 311 310 308 308 307 307 308 312 315 315 314 312 311 309 308 308 308 308 308 308 307 307 305 304 303 303 303 302 302 302 301 300 299 298 299 300 300 300 300 300 299 298 298 299 298 298 298 299 301 301 299 299 299 299 298 298 297 298 298 298 299 299 300 300 300 300 300 299 299 300 300 300 300 300 301 301 303 304 305 306 308 310 311
314 314 314 313 311 308 307 307 307 307 311 314 312 311 310 309 309 309 308 307 307 306 306 307 306 305 305 304 303 303 302 302 301 301 300 300 300 299 298 299 300 300 300 300 299 299 299 297 296 296 296 296 297 297 297 297 298 297 297 297 297 298 298 298 299 299 299 299 299 300 299 299 299 299 298 298 299 299 299 299 300 300 301 302 303 304 306
313 314 313 312 310 308 306 308 308 307 310 311 309 307 307 307 306 307 307 306 306 306 305 305 305 304 304 304 303 302 302 301 301 301 301 301 300 300 299 299 299 301 301 300 299 300 300 298 296 296 296 297 297 297 297 298 298 298 298 298 298 298 298 298 298 298 298 298 298 298 298 298 298 298 298 298 298 298 299 300 301 301 302 302 303 304 306
311 312 310 309 308 306 305 307 307 306 306 308 307 306 306 305 305 305 305 305 305 305 304 304 304 304 303 303 302 302 301 301 301 301 301 301 300 300 300 299 299 300 300 299 299 301 300 298 298 298 298 299 300 300 300 300 299 299 299 299 299 299 299 299 299 298 298 298 298 298 298 299 299 298 298 298 298 298 298 299 300 301 302 302 303 303 304
309 309 308 307 306 305 305 306 306 305 305 305 305 305 304 303 303 304 304 305 305 305 304 304 304 303 303 302 302 302 301 301 301 301 301 301 301 300 301 300 299 299 300 300 300 301 299 298 299 299 299 300 301 301 300 300 300 300 300 300 300 300 300 300 299 299 299 299 299 299 299 299 299 299 299 299 299 299 299 299 300 300 301 301 302 302 302
307 307 306 305 305 305 305 305 305 305 304 304 304 303 302 302 303 303 304 304 304 304 304 303 303 302 302 302 301 301 301 300 300 301 301 301 300 300 301 300 299 299 300 300 301 301 300 300 300 300 300 300 300 300 300 300 300 300 300 300 300 300 300 299 299 299 299 298 299 299 299 299 299 299 299 299 299 299 299 299 300 300 301 301 301 302 302
308 308 306 305 305 305 304 304 304 304 303 303 303 303 302 302 302 303 303 303 303 302 302 302 302 301 301 301 301 301 300 300 300 300 300 300 300 300 300 300 299 299 300 301 300 300 300 300 300 300 300 300 300 300 300 300 300 300 300 300 299 299 299 299 298 298 298 298 298 298 299 299 299 299 299 299 299 299 299 299 299 300 300 301 301 302 302
308 307 305 304 305 304 304 304 304 303 303 303 302 302 302 302 302 302 303 303 303 302 302 301 301 301 301 300 300 300 300 300 300 300 300 300 300 299 300 299 299 299 300 300 300 300 300 300 300 300 300 300 299 299 299 299 299 299 299 299 299 298 298 297 297 297 298 298 298 298 298 298 298 298 299 298 299 299 298 298 298 299 299 300 300 301 301
306 306 305 304 305 304 303 303 303 302 302 302 302 302 302 302 302 302 302 302 302 302 301 301 301 301 301 300 299 299 300 300 300 299 299 299 299 299 299 299 298 299 299 299 299 299 299 299 299 299 299 299 299 299 299 299 298 298 298 298 298 298 297 297 296 297 297 297 297 297 297 297 298 298 298 298 298 298 298 298 298 298 298 298 298 299 300
307 306 305 305 305 304 303 302 302 302 302 302 302 302 302 301 301 301 301 301 301 300 300 300 301 301 300 300 299 299 299 299 299 299 299 299 298 298 298 297 298 299 299 299 299 299 299 299 299 299 299 299 299 299 299 299 298 298 298 298 298 297 297 296 296 296 296 296 296 296 296 296 297 297 297 297 297 297 297 298 298 298 297 297 297 298 299
306 305 304 304 305 304 303 303 303 302 302 302 302 302 301 301 301 301 301 300 300 300 300 300 300 300 300 299 298 298 298 298 298 298 298 297 297 297 297 297 298 298 298 299 299 299 299 299 299 298 298 298 298 299 299 299 299 298 298 297 297 296 296 296 295 295 295 295 295 295 295 295 295 296 296 296 296 296 296 297 297 297 297 297 297 297 298
304 304 304 304 304 303 303 302 302 301 301 302 302 301 301 300 300 300 300 300 300 300 300 300 299 299 299 298 297 297 297 298 297 297 297 296 297 297 297 297 298 298 298 298 298 298 298 298 298 298 298 298 299 299 299 298 298 298 297 297 297 296 296 296 295 295 295 295 295 295 295 295 296 296 296 296 296 296 296 296 296 297 297 297 297 297 298
303 302 303 303 303 302 302 301 301 300 300 300 300 300 300 300 300 299 299 299 299 299 299 299 299 298 298 298 297 297 297 297 297 296 296 296 297 297 297 297 297 298 298 298 297 298 298 298 298 298 298 299 298 298 298 298 298 297 297 297 297 297 297 296 296 296 296 296 296 296 296 296 296 296 296 295 295 296 296 296 296 297 297 297 297 297 298
302 302 302 302 302 302 301 301 300 300 299 299 299 299 299 299 299 299 298 298 298 298 298 298 298 297 297 297 297 297 297 296 296 296 296 296 296 296 296 296 296 297 297 297 297 298 298 298 298 298 299 298 298 298 298 298 298 298 297 297 297 297 296 296 296 296 296 296 296 296 296 296 296 296 295 295 295 295 295 296 296 297 298 298 297 297 297
301 300 301 301 300 300 300 300 300 300 299 299 299 298 298 298 298 298 298 297 297 298 298 298 297 297 297 296 296 296 296 296 296 296 296 296 296 296 296 296 296 296 296 297 297 297 298 298 299 298 298 298 298 298 298 298 298 298 297 297 297 296 296 295 295 295 296 296 295 295 295 295 295 295 294 294 294 294 295 295 295 296 298 298 297 297 297
300 299 300 300 299 299 299 299 300 299 299 299 298 298 298 298 298 298 298 297 297 298 297 297 297 297 296 296 296 296 296 296 296 296 296 296 296 296 295 295 294 295 296 296 297 297 298 299 299 298 298 298 298 298 298 298 298 298 297 297 297 296 295 295 296 296 296 295 295 294 294 294 294 294 294 294 294 294 294 294 294 294 296 296 297 297 297
299 299 299 299 299 299 298 299 299 298 298 298 298 298 298 298 298 298 298 297 297 297 297 297 297 296 296 296 296 296 296 296 296 296 296 296 295 295 295 294 293 294 296 297 297 298 298 298 298 298 298 298 298 298 298 298 298 297 297 296 297 296 296 296 296 296 295 295 294 293 294 294 294 294 294 294 294 294 294 294 294 294 294 295 296 296 297
299 299 299 299 299 299 298 298 298 298 298 298 298 298 298 298 297 298 298 298 297 297 297 297 297 296 296 296 296 296 296 296 295 295 296 296 295 295 294 293 293 295 296 297 297 298 298 298 298 298 298 298 298 298 297 298 298 297 296 296 296 296 296 296 296 295 294 294 293 293 293 294 294 294 294 294 294 294 294 294 294 294 295 296 296 297 298
299 299 299 299 299 299 298 298 298 298 298 298 298 298 298 298 297 297 297 297 297 297 297 297 296 296 296 296 296 296 295 295 295 294 294 293 292 292 292 292 293 295 296 297 297 298 298 298 298 298 298 298 298 298 297 298 298 297 297 296 296 296 296 296 295 294 294 294 294 293 294 294 295 294 294 294 294 295 295 295 295 296 297 297 297 298 298
299 299 299 299 299 299 299 299 298 298 298 298 297 298 298 297 297 297 297 297 297 296 296 296 296 296 296 296 295 295 294 294 293 291 291 291 291 292 293 294 295 296 297 297 297 297 298 298 298 298 298 298 298 297 298 298 298 297 297 297 296 296 296 296 295 294 294 295 294 294 294 295 295 295 295 295 295 296 296 296 296 297 297 298 298 298 298
300 299 300 299 299 299 298 298 298 297 298 298 298 298 298 297 297 297 297 297 296 296 296 296 296 296 296 295 295 294 293 291 290 290 291 293 293 293 294 295 296 297 297 297 297 297 298 298 298 298 298 298 297 297 298 298 298 297 297 297 296 296 296 296 294 294 295 295 295 295 295 295 295 295 295 296 296 296 297 297 297 297 297 298 298 298 298
299 299 299 299 299 298 298 297 297 297 297 297 297 298 298 297 297 297 297 297 297 296 296 296 296 295 295 294 294 292 291 290 291 292 294 294 294 293 294 295 296 297 297 297 297 298 298 298 298 298 298 298 297 298 298 298 297 297 297 297 296 296 296 295 294 294 295 296 296 295 295 295 295 295 296 297 297 297 297 297 297 297 297 298 298 298 298
299 299 299 299 298 298 297 297 297 297 297 297 297 298 297 297 297 297 297 296 296 296 296 295 295 295 295 294 292 291 290 292 294 295 295 295 294 294 295 296 297 297 297 297 298 298 298 298 298 298 297 297 298 298 298 297 297 297 297 297 297 296 295 294 294 295 295 296 296 296 295 295 295 295 296 297 296 297 297 297 297 297 298 297 298 298 298
299 299 299 298 298 297 297 297 297 297 297 297 297 297 297 297 297 297 297 296 296 296 296 295 295 295 294 292 291 291 293 295 296 295 295 295 295 295 296 297 297 297 298 298 298 298 298 298 298 297 297 298 298 298 298 297 297 297 297 297 296 296 295 294 294 295 295 295 295 296 295 295 295 296 296 296 296 296 297 297 297 297 297 297 297 297 297
298 298 298 298 297 297 297 297 297 297 297 297 297 297 297 297 297 297 296 296 296 296 296 295 295 295 294 291 290 293 296 296 296 295 295 296 296 296 296 297 297 297 297 297 297 297 298 297 296 296 297 298 298 298 297 297 297 297 297 297 296 295 295 294 294 295 295 295 295 295 296 296 296 296 296 296 296 296 296 296 296 296 296 296 296 296 296
298 298 298 298 298 298 297 297 297 297 297 297 297 297 297 296 296 296 296 296 296 296 295 295 295 295 293 290 291 294 296 296 296 296 296 295 295 294 295 296 296 296 296 296 296 296 295 294 295 296 297 297 297 298 297 297 297 297 297 296 296 295 295 294 294 294 295 295 294 295 295 296 296 296 296 296 296 296 295 295 295 295 295 295 296 296 296
298 298 298 297 297 298 297 298 297 297 297 297 297 297 296 296 296 296 296 296 296 296 295 295 295 294 293 291 292 294 295 296 296 296 295 294 293 292 293 294 295 295 295 294 293 292 292 291 292 294 296 296 297 297 296 297 297 297 296 296 296 295 295 295 294 294 294 294 294 293 294 295 296 296 296 296 296 295 295 295 294 294 294 294 295 295 295
298 298 298 298 297 298 298 297 298 298 297 297 297 297 297 296 296 296 296 296 296 295 295 295 294 293 293 293 293 294 294 295 295 295 295 294 292 292 292 293 293 294 294 293 293 292 291 291 291 292 293 295 296 296 296 297 297 296 296 296 296 295 295 295 295 294 294 293 293 293 293 295 296 296 296 295 295 295 295 294 293 293 293 294 294 295 295
298 298 298 298 298 298 298 298 298 298 298 297 297 297 297 297 296 296 296 296 296 296 295 295 294 293 292 293 294 294 294 294 294 294 293 293 292 292 293 293 294 294 294 294 294 293 292 292 292 291 292 295 296 296 296 297 297 296 296 296 295 294 294 295 295 295 295 293 292 292 293 294 295 296 296 295 295 295 295 294 293 293 293 294 294 295 295
298 298 298 298 298 298 297 297 297 297 297 298 298 298 297 297 297 296 296 296 296 295 295 294 294 293 292 292 293 293 294 293 293 292 292 292 291 292 292 293 294 295 294 294 292 291 291 292 292 291 292 295 296 296 296 296 297 296 296 296 295 294 293 293 295 295 295 294 293 292 293 294 295 295 295 295 295 295 294 293 292 292 293 294 294 294 294
298 298 298 298 298 298 298 298 298 298 297 298 298 298 298 297 297 297 297 296 296 296 295 295 294 293 293 292 292 292 292 292 292 292 292 292 291 292 292 292 293 293 292 291 290 290 291 293 293 291 291 294 296 295 295 296 296 296 296 295 295 294 293 293 294 295 295 295 294 293 293 294 294 294 295 295 294 294 293 292 292 293 293 294 294 294 294
298 298 298 298 298 298 298 298 298 298 298 298 297 297 298 298 298 297 297 296 296 296 296 295 294 293 293 293 292 291 291 291 292 292 292 292 292 292 292 292 292 292 291 289 288 289 290 292 291 290 290 293 295 295 295 296 296 296 295 295 295 294 294 294 294 294 294 295 295 294 294 294 294 294 294 294 294 293 293 292 292 293 293 293 294 294 294
298 298 298 298 298 298 298 298 298 298 298 298 297 297 297 298 298 298 297 297 296 296 296 296 295 294 293 292 292 292 291 292 292 292 292 292 292 293 293 293 293 292 290 288 288 289 289 290 289 289 289 292 294 295 295 295 295 295 295 295 295 295 295 294 293 293 293 294 294 294 294 294 294 294 293 293 293 293 292 292 293 293 293 293 294 294 294
298 298 298 298 298 298 298 298 298 298 298 297 297 297 297 297 297 298 297 297 297 296 296 296 296 295 293 292 292 292 292 292 291 292 292 291 292 292 292 293 294 293 290 288 288 289 289 288 289 288 289 290 292 293 293 294 294 295 295 295 294 294 295 294 294 293 292 292 293 294 294 294 294 294 293 293 293 292 292 292 293 293 293 293 293 293 293
298 298 298 298 298 298 298 298 297 297 297 297 297 297 297 297 297 297 297 297 297 297 296 296 296 295 294 293 292 292 292 291 291 291 291 291 291 291 291 291 292 291 289 287 287 288 288 288 288 288 288 289 291 291 292 292 292 293 294 295 294 294 294 294 293 293 293 292 292 292 293 293 293 293 293 293 293 293 292 292 292 292 292 293 293 293 293
298 298 298 298 298 298 298 298 298 298 298 297 297 297 297 297 297 297 297 297 297 297 296 296 296 296 295 294 293 292 292 291 292 292 292 291 291 291 290 289 289 288 287 287 287 288 288 288 288 288 288 289 289 290 290 290 290 290 292 293 294 294 294 293 293 293 292 292 291 291 291 291 292 292 292 292 292 292 292 292 292 292 292 292 293 293 293
298 298 298 298 298 298 297 298 298 298 298 297 297 297 297 297 297 297 297 297 297 297 296 296 296 296 295 295 294 293 292 291 292 292 292 291 291 291 290 288 288 288 288 288 288 288 287 288 288 288 288 289 289 289 289 289 289 288 289 290 291 292 293 293 293 293 292 292 292 292 291 291 291 291 291 291 292 292 292 292 292 292 292 293 293 293 293
298 298 298 298 298 297 297 297 297 297 297 297 297 297 297 297 297 297 297 297 297 297 297 296 296 296 296 295 295 295 293 291 291 292 292 292 292 291 289 288 288 288 288 288 289 288 288 287 287 288 288 288 288 288 288 288 288 288 288 288 288 289 290 291 292 292 292 292 292 292 291 290 290 290 291 291 292 292 292 293 293 293 293 293 293 293 293
298 299 299 298 298 297 297 297 297 297 297 297 297 297 297 297 297 297 297 296 296 296 297 296 296 296 296 295 295 295 294 293 291 291 291 291 291 290 288 288 288 288 288 288 289 289 288 288 287 287 287 288 288 288 288 288 288 288 288 288 288 288 288 289 289 290 290 290 290 290 290 289 289 289 290 291 292 292 293 293 293 293 293 293 293 293 293
298 298 298 298 297 297 297 297 297 297 297 297 297 297 297 297 297 297 297 296 296 296 296 296 296 296 296 295 294 294 293 293 292 292 291 291 290 289 288 288 288 288 288 288 288 289 289 288 287 287 287 288 288 288 288 288 287 287 288 287 288 288 288 288 288 288 288 289 289 289 289 289 289 289 289 290 290 291 291 291 291 291 291 291 291 291 291
Wind_Speed
4 4 8 6 5 5 7 10 11 11 12 11 9 3 1 5 6 3 4 8 10 7 7 8 7 7 10 13 18 23 24 25 26 27 29 30 29 28 27 27 26 26 25 22 20 18 14 13 14 15 16 16 16 18 17 15 14 14 14 13 11 10 9 10 13 14 14 14 13 13 13 13 12 10 9 8 8 10 12 9 10 11 9 8 10 10 9
5 1 7 9 6 3 5 9 9 9 10 10 10 6 5 10 10 9 12 12 8 6 5 8 10 10 14 21 25 25 26 26 26 27 27 28 28 27 27 28 28 28 29 29 28 26 24 22 21 19 18 15 14 15 15 14 14 14 14 14 13 10 7 7 9 10 10 10 11 13 13 14 14 12 11 11 9 11 14 10 8 11 10 8 9 10 9
5 4 6 9 8 4 4 8 11 10 9 8 8 7 7 10 9 11 15 13 8 6 7 11 15 12 11 19 24 24 26 27 27 28 27 26 26 25 24 25 26 26 27 28 28 29 28 29 29 27 25 21 17 15 13 13 13 13 13 12 11 10 8 7 6 5 6 6 7 9 10 10 11 11 11 11 10 12 15 14 10 11 12 11 12 11 10
0 4 3 4 7 6 6 9 13 13 7 3 4 4 5 4 8 11 13 9 5 7 9 12 16 12 7 15 23 25 26 27 27 27 26 25 25 23 22 22 22 24 25 25 25 26 26 27 29 29 27 25 22 20 19 18 17 18 20 19 18 17 15 11 7 6 5 5 6 8 8 7 7 8 9 10 11 12 14 17 16 14 14 14 15 16 14
3 6 7 3 4 5 5 5 8 10 6 1 5 5 6 4 4 6 8 5 4 9 11 10 12 10 8 13 20 22 25 28 28 28 28 26 25 23 22 21 20 20 21 22 23 23 24 25 25 25 25 26 25 24 25 24 22 20 21 22 23 22 21 18 14 13 10 7 6 6 5 4 5 5 4 5 8 9 11 14 16 17 17 17 17 18 18
2 5 6 5 5 4 2 3 5 7 4 3 7 6 5 5 2 3 7 7 5 8 11 10 11 13 16 22 26 26 28 31 31 30 28 24 21 19 17 17 17 17 18 19 19 20 21 21 20 20 22 23 24 25 26 25 23 20 19 19 19 19 19 19 18 17 15 12 10 9 7 5 2 1 2 3 4 5 6 8 10 13 15 17 18 20 20
0 3 5 5 3 2 1 3 7 9 8 7 8 10 8 7 6 7 7 8 10 12 14 17 22 25 26 30 31 29 28 30 29 27 23 19 15 13 11 9 10 11 13 13 15 16 17 16 16 16 18 19 20 22 24 23 21 20 18 17 16 15 14 14 14 15 14 12 10 9 9 8 6 4 2 2 3 4 6 7 9 10 11 13 15 17 20
1 2 3 2 1 2 3 5 10 11 10 10 8 7 7 6 10 9 5 7 12 17 20 23 28 32 32 30 27 24 23 22 22 21 18 15 13 12 11 10 10 10 10 11 12 12 12 12 12 12 13 14 15 17 19 20 19 16 13 12 12 11 10 9 9 8 8 8 7 6 4 3 3 3 2 2 2 3 4 6 8 10 11 12 13 13 15
1 3 3 2 1 3 4 4 5 5 5 8 6 2 4 4 4 9 9 9 12 17 22 25 29 33 31 23 19 21 19 17 17 17 16 14 13 13 12 10 10 10 9 9 9 9 9 9 8 8 8 9 9 10 12 13 14 12 8 7 7 6 4 4 4 3 2 2 3 4 4 5 6 6 6 6 6 7 7 6 7 10 12 13 14 14 14
0 3 3 2 1 1 1 3 4 5 9 13 8 1 3 8 8 8 12 11 10 14 19 24 26 27 19 9 11 20 20 17 17 15 13 13 13 12 9 7 6 6 4 4 4 4 4 4 4 5 5 5 4 4 5 5 5 5 4 3 2 1 1 3 3 3 3 3 3 4 5 7 8 10 10 11 11 11 11 11 12 13 15 16 16 17 17
1 3 3 2 2 1 1 4 4 6 12 16 10 4 2 8 10 13 15 11 12 14 15 18 19 16 9 3 9 21 23 20 19 15 12 12 12 10 8 7 7 6 5 5 4 3 3 2 2 3 4 4 3 2 3 2 1 1 2 3 4 5 6 6 6 6 6 6 7 7 8 10 11 12 12 13 14 14 15 16 16 16 17 17 18 18 19
2 2 2 2 1 1 2 5 6 9 12 10 5 4 1 6 5 14 17 14 15 16 15 14 11 8 7 9 14 21 22 19 16 12 9 10 10 10 9 9 9 8 8 8 9 8 7 5 3 3 3 3 3 2 3 3 4 5 5 6 7 8 9 10 11 11 11 11 11 11 12 13 14 15 16 17 18 18 18 19 19 20 19 19 19 19 19
2 2 3 2 1 1 4 8 12 13 9 3 3 1 3 3 3 13 18 17 16 17 17 15 11 11 17 20 19 18 16 14 12 9 8 8 8 9 9 9 8 8 8 8 8 7 7 6 5 4 4 3 2 1 2 3 5 7 8 9 9 10 11 12 13 14 14 15 16 16 17 17 18 19 20 21 22 22 22 22 22 22 23 23 24 23 22
1 2 3 2 1 3 7 10 11 11 4 2 2 4 7 9 13 18 21 21 21 22 23 22 20 21 23 21 17 14 12 12 12 10 9 7 7 7 8 7 6 6 4 5 5 5 4 4 4 3 3 2 2 1 1 3 5 7 9 10 10 11 13 14 14 15 16 17 18 19 20 21 22 23 23 23 23 23 23 23 23 23 23 24 25 25 24
2 3 3 2 1 7 12 8 7 9 5 2 7 14 17 20 23 24 24 25 26 27 27 26 26 25 22 19 18 17 15 15 14 12 9 7 6 6 6 6 8 5 1 2 2 2 2 4 4 3 2 2 2 1 2 3 5 7 8 10 11 13 14 14 15 16 17 18 18 19 20 21 22 24 25 25 25 24 23 23 22 22 21 21 22 24 24
2 2 2 2 2 6 15 12 6 7 9 9 15 19 18 19 22 23 23 23 25 27 28 26 25 24 22 20 18 16 14 12 11 10 9 7 7 5 2 3 6 5 0 2 1 1 4 5 5 5 5 5 5 5 5 7 8 9 10 11 12 14 15 16 16 16 17 17 17 18 18 19 20 22 23 24 25 24 24 23 23 22 21 19 20 22 23
4 4 4 7 9 12 18 18 15 17 21 21 21 22 22 22 22 22 23 22 21 24 26 25 24 23 21 19 16 14 12 11 9 9 8 7 6 4 2 1 3 4 2 1 1 3 5 5 6 6 7 8 8 7 5 6 6 6 7 9 11 13 16 17 18 18 18 18 17 17 18 18 19 20 21 20 20 19 19 20 21 21 20 19 19 20 22
6 9 11 12 14 16 20 21 20 21 23 23 23 24 24 23 22 22 23 23 22 22 23 23 21 19 17 15 13 11 10 9 8 9 8 6 6 4 2 2 2 5 4 2 4 2 2 4 6 7 8 8 6 2 3 4 4 5 8 11 14 16 18 19 20 20 20 19 19 18 18 18 18 17 17 16 16 16 17 18 19 20 20 20 20 20 21
3 5 8 10 11 14 18 20 20 21 22 21 21 21 20 19 19 19 20 21 21 21 21 21 20 17 15 13 11 9 7 7 7 8 6 5 4 3 2 3 1 5 4 2 2 3 3 3 3 1 2 2 2 3 6 9 11 12 14 15 17 18 19 20 20 20 18 18 17 17 17 16 15 15 14 15 15 16 17 19 20 21 22 23 22 21 21
4 5 8 11 12 14 16 16 17 18 19 18 17 18 17 17 17 16 15 15 16 15 15 14 13 13 12 11 11 9 8 9 9 8 6 4 4 3 2 1 1 3 3 3 4 4 3 3 3 4 4 4 4 6 8 10 12 14 15 17 18 19 20 20 18 17 16 15 16 16 15 15 15 15 16 16 16 17 17 19 21 23 25 26 27 25 25
5 6 9 11 10 10 14 17 14 12 13 14 14 15 15 14 15 14 13 11 9 8 7 5 5 8 10 9 10 9 7 7 7 5 4 5 5 3 2 1 2 1 3 4 4 4 2 2 3 2 4 6 8 8 9 10 12 13 15 16 18 20 21 20 16 14 15 15 15 15 16 16 17 17 17 18 19 20 19 18 19 21 23 26 28 28 29
3 3 6 7 5 6 11 14 11 9 10 11 12 13 12 12 11 10 9 8 7 5 4 3 6 11 11 8 7 6 4 3 3 4 5 5 3 3 3 2 1 0 2 3 4 4 2 2 2 2 4 5 5 6 8 9 12 14 16 18 20 21 21 19 16 14 15 16 16 17 18 19 19 19 19 18 19 20 21 21 20 20 22 24 25 26 28
4 3 6 10 10 9 11 12 11 9 10 11 13 14 12 10 9 8 6 5 5 3 1 3 8 11 9 6 4 4 4 4 4 5 4 1 2 2 1 1 0 1 3 3 3 4 4 3 3 4 3 3 5 5 7 10 14 16 18 19 20 20 18 16 14 14 14 15 16 17 18 19 20 21 22 23 22 21 21 21 20 19 20 22 22 21 22
9 8 11 15 15 12 11 11 11 10 9 11 15 15 10 7 8 7 3 2 4 5 4 6 9 9 8 5 4 4 5 6 5 3 1 2 1 2 3 3 1 1 3 4 4 4 3 2 3 2 3 6 5 5 10 13 15 17 18 18 18 17 16 16 15 14 14 16 17 19 20 21 22 24 25 27 26 24 22 20 18 17 18 20 21 18 16
12 11 14 15 14 12 10 9 9 8 8 9 10 9 7 6 7 7 4 3 4 6 7 8 8 7 6 7 7 6 5 3 2 1 2 2 2 5 6 6 4 3 2 4 4 4 3 1 1 4 6 6 5 8 13 15 16 17 18 18 18 18 17 17 17 17 17 18 19 21 22 23 25 25 26 28 28 25 23 20 17 17 17 18 18 17 14
13 13 14 13 13 13 11 10 10 8 6 7 8 6 4 3 3 4 3 2 2 3 5 5 4 4 5 5 4 4 3 2 4 2 1 2 4 4 5 7 7 6 5 5 5 4 2 1 3 6 7 5 6 10 13 15 17 18 19 19 19 18 17 17 17 17 17 19 21 23 24 24 25 25 24 24 24 23 23 22 19 17 16 15 14 14 14
11 10 9 11 12 11 9 10 11 7 6 6 6 6 4 2 2 1 1 2 2 2 3 4 4 2 0 1 2 2 2 4 4 1 2 6 9 9 9 10 8 9 8 7 5 3 1 2 4 5 3 5 9 11 12 14 16 17 19 20 18 17 15 16 16 16 18 21 22 23 22 21 21 21 21 21 21 21 22 24 24 22 20 17 14 14 14
10 9 9 11 13 11 9 9 7 5 5 5 4 2 0 2 1 2 1 2 3 3 2 3 3 3 1 2 5 5 4 4 5 4 5 8 12 13 13 13 10 10 11 8 5 3 4 6 5 2 1 5 9 10 12 15 16 16 18 18 16 15 16 17 17 18 19 21 20 19 18 17 16 16 16 17 18 20 21 22 23 23 22 20 16 14 13
9 9 9 11 10 8 6 5 3 3 4 2 2 2 3 3 2 0 1 2 2 2 3 5 5 3 1 2 4 5 5 7 7 7 9 11 12 14 14 15 13 9 11 10 6 5 6 6 5 3 1 5 8 12 14 15 15 16 17 15 14 16 17 17 18 19 19 20 18 17 16 15 12 11 12 12 14 16 18 19 19 18 18 18 15 13 12
8 8 6 5 5 3 1 1 3 4 4 4 4 4 4 3 2 2 2 1 2 3 4 3 1 1 3 5 6 7 8 9 9 9 12 13 14 15 16 17 14 8 12 10 7 6 6 4 3 0 3 4 8 13 15 13 13 15 17 16 16 18 18 16 17 18 17 17 17 16 16 15 12 12 12 12 12 13 14 14 14 15 16 16 13 12 12
8 7 5 3 3 1 2 5 4 1 1 3 4 5 4 4 3 1 3 2 2 4 2 1 3 4 7 9 9 8 9 9 10 12 14 15 16 17 18 18 13 10 12 10 7 6 5 2 1 1 3 6 11 14 13 11 12 15 16 16 17 19 19 17 16 16 15 15 16 16 16 15 14 15 15 14 14 14 14 13 13 15 15 14 12 11 12
8 7 5 3 1 1 3 5 5 3 2 3 4 6 6 5 6 5 3 2 1 1 1 4 5 7 9 10 9 9 11 13 15 17 17 16 17 17 17 16 11 10 10 7 6 6 5 2 1 3 4 8 12 12 10 10 12 15 15 15 17 19 20 17 14 14 14 15 16 18 17 16 15 15 15 14 13 14 14 14 15 14 13 11 10 11 11
8 9 8 4 2 2 2 4 5 4 5 5 4 7 7 6 6 7 6 4 4 4 5 6 9 10 10 9 9 12 15 16 17 16 14 13 13 13 11 9 9 9 7 6 7 6 3 0 3 5 7 10 11 10 9 11 14 15 14 14 16 19 19 14 11 12 15 16 17 17 17 16 15 13 13 13 12 11 13 14 14 13 10 9 9 9 8
5 6 5 4 4 3 2 4 4 5 7 7 3 7 7 5 4 5 6 5 4 4 5 7 9 9 9 8 11 14 16 15 14 11 9 10 10 7 6 8 8 7 6 7 7 4 1 3 5 8 9 9 8 8 11 14 15 15 14 14 17 19 16 10 9 11 15 16 16 16 15 14 11 10 12 13 11 10 11 12 11 11 10 8 6 6 7
2 1 2 4 3 2 2 2 4 5 7 6 4 5 6 5 5 6 6 5 5 6 8 9 9 8 8 11 14 15 15 13 9 7 6 6 5 4 6 7 7 7 7 7 4 1 2 6 9 10 7 5 5 7 11 14 15 15 14 14 17 19 14 7 7 11 13 14 15 16 15 12 9 8 10 11 10 10 11 11 10 9 8 6 5 5 5
3 1 3 4 3 2 2 2 4 5 5 5 5 5 5 5 6 8 7 6 6 9 10 10 10 8 9 12 14 13 12 8 6 4 3 3 3 3 5 6 7 8 7 6 3 3 7 10 10 7 4 3 4 6 9 12 13 13 12 13 18 20 12 4 6 10 11 11 13 14 14 12 9 8 9 9 9 10 11 11 11 10 7 5 5 5 4
2 2 2 3 3 2 1 2 4 4 5 5 4 5 6 7 7 7 7 6 7 9 9 9 8 8 11 12 11 10 8 5 3 3 3 3 2 2 4 6 7 7 5 4 4 7 9 9 7 4 3 1 3 4 8 10 10 10 11 13 18 21 13 4 5 9 9 8 9 11 11 10 10 9 9 10 10 11 11 11 11 10 7 4 3 2 1
2 4 4 3 1 0 1 2 4 5 6 5 4 4 5 6 6 5 5 6 8 9 8 8 8 11 11 9 8 7 5 3 3 3 4 3 2 2 4 7 8 6 3 2 5 8 9 7 4 5 6 3 3 5 7 8 6 7 11 14 18 22 17 7 4 6 7 7 7 7 8 8 9 8 8 10 10 10 10 9 8 7 6 3 2 2 1
2 4 6 5 4 4 5 5 5 5 4 4 4 4 4 5 6 7 6 7 9 10 10 10 10 10 8 6 7 7 5 2 1 2 3 2 2 3 4 6 7 6 3 2 4 6 6 5 5 6 7 5 4 3 4 4 3 5 10 13 16 20 19 11 5 4 5 7 8 6 4 5 7 6 7 9 9 8 7 7 6 7 7 6 3 3 3
6 4 5 5 6 6 7 6 6 6 6 6 7 7 6 5 6 8 8 8 8 10 12 11 9 8 7 6 6 6 5 3 2 2 2 2 3 3 2 3 7 6 4 3 3 6 7 6 5 4 4 3 1 2 2 3 2 4 9 12 15 18 17 14 11 8 6 7 9 6 3 3 4 6 8 7 6 5 7 9 10 10 9 7 6 6 6
8 8 8 9 11 12 10 9 9 8 7 6 7 9 9 8 7 8 9 9 10 10 10 8 5 6 7 7 6 5 5 4 4 4 3 3 4 3 1 1 3 4 4 4 5 7 7 6 3 2 1 0 2 4 4 3 2 4 7 11 14 17 16 15 15 13 9 7 8 7 6 4 4 5 5 3 3 4 7 10 11 10 8 7 7 8 8
6 7 8 9 10 13 13 13 13 13 11 9 7 8 10 10 9 9 9 9 8 8 6 4 4 5 6 7 6 5 5 5 6 7 6 5 5 4 2 2 2 4 4 6 6 6 7 6 3 3 2 2 4 4 3 2 1 3 6 9 14 16 15 14 15 14 11 9 9 7 6 5 5 5 5 3 3 4 7 9 9 8 7 8 10 11 11
8 9 9 8 9 10 11 11 12 15 15 13 10 8 9 11 11 12 12 10 8 6 6 6 6 6 7 8 6 6 6 6 7 8 8 6 3 3 3 5 6 7 8 8 6 8 9 7 4 3 1 3 7 5 3 2 2 2 5 10 13 14 13 13 14 13 12 12 12 10 7 6 5 5 4 4 3 4 8 9 9 8 7 9 11 11 11
11 12 11 9 8 9 9 10 10 11 12 11 9 7 9 11 12 12 12 12 10 9 9 9 7 7 7 7 6 4 4 6 7 8 7 6 5 5 7 9 9 8 7 7 8 10 10 7 5 3 3 6 8 6 5 5 5 2 4 9 11 11 11 12 13 13 11 11 13 13 11 7 6 5 3 2 2 5 8 10 9 7 7 8 9 9 8
11 11 9 9 9 9 10 11 10 9 9 9 8 7 9 11 11 10 11 11 10 9 9 9 8 7 7 7 7 6 4 5 6 7 7 7 7 9 12 12 10 6 6 7 8 8 7 6 5 4 4 7 9 7 6 6 6 4 1 4 6 7 8 10 11 12 11 10 10 12 13 12 9 6 4 3 3 5 8 9 8 7 7 8 8 7 7
11 10 10 11 12 12 12 12 12 11 11 11 10 9 9 10 11 10 11 11 11 9 10 11 11 9 8 8 8 7 7 7 7 8 9 10 10 10 11 11 11 9 9 8 6 4 3 4 5 4 4 6 8 8 8 8 7 5 3 2 2 2 3 6 9 10 9 8 7 8 10 11 11 10 9 8 8 8 9 9 8 8 7 7 6 7 7
11 10 11 11 10 10 11 10 9 10 11 13 12 9 8 9 10 11 11 10 11 10 11 12 12 10 8 7 8 9 8 7 7 7 8 9 9 8 9 11 11 11 9 6 4 4 4 4 5 5 5 6 7 8 8 8 7 7 6 5 3 2 2 3 4 6 7 7 6 5 5 7 8 9 9 8 8 8 8 8 9 8 8 7 7 7 7
10 11 12 11 10 10 10 9 8 8 10 12 12 10 7 6 7 8 9 9 9 10 10 11 11 10 8 8 9 9 8 8 8 9 9 9 8 7 7 8 8 6 5 3 2 2 4 4 5 5 6 6 7 8 8 6 4 5 7 8 6 5 5 3 1 2 4 6 6 4 3 3 4 5 5 5 6 6 6 7 8 8 7 7 6 5 5
12 13 13 13 12 11 10 10 9 11 12 13 13 13 10 8 6 5 6 8 9 9 9 10 11 11 11 10 10 9 7 8 9 8 9 10 9 7 4 3 3 2 1 2 1 2 3 4 5 6 6 6 6 6 5 4 3 3 4 6 8 8 7 6 5 4 6 6 5 5 6 6 2 2 3 3 4 4 4 5 6 6 6 6 5 5 4
10 10 10 10 9 9 9 9 9 8 9 9 10 12 12 11 9 8 9 10 11 10 9 9 10 11 11 13 13 10 6 6 8 9 9 11 10 8 4 2 3 3 1 1 2 2 3 3 4 5 6 5 5 4 2 1 2 3 2 3 5 7 8 9 9 8 8 8 7 8 10 11 7 3 2 3 4 4 4 4 5 5 5 5 5 5 5
8 7 7 7 7 7 8 7 5 5 5 6 7 9 10 9 9 10 10 10 10 10 9 10 10 9 9 11 15 13 8 5 7 11 12 12 11 9 5 3 3 4 3 2 2 2 2 3 3 3 3 3 4 3 2 1 1 2 1 1 3 4 5 7 8 9 9 9 9 8 8 7 5 3 2 3 4 5 5 5 5 5 5 5 5 5 5
7 6 6 5 5 6 7 7 6 5 4 5 6 7 7 7 7 9 10 8 6 5 6 8 10 10 7 7 10 14 12 8 7 8 9 9 8 7 5 4 4 4 4 4 4 2 2 3 3 3 3 3 3 3 2 1 1 2 2 1 0 1 2 2 3 4 4 4 3 2 2 1 1 1 1 2 3 3 3 3 3 3 3 4 4 4 4
Wind_Direction
323 96 87 81 75 17 22 49 45 35 32 24 20 18 146 117 113 143 147 116 117 127 122 118 122 124 131 134 123 114 108 103 98 92 85 81 79 78 76 77 81 84 88 95 105 111 116 118 118 118 122 130 133 130 129 131 134 136 140 146 156 171 173 153 152 164 171 177 190 198 199 204 209 206 202 210 207 187 184 199 214 222 236 226 211 214 217
267 165 106 94 86 34 21 46 46 46 49 30 4 359 65 94 108 122 113 98 94 101 100 107 118 127 132 130 124 116 110 105 100 93 85 80 77 75 72 71 72 74 76 81 89 95 98 97 98 101 101 104 113 121 125 126 127 133 140 144 147 152 153 135 138 160 175 182 192 199 202 208 212 210 209 213 211 193 192 206 217 220 231 231 215 219 224
221 210 140 121 121 133 81 47 26 25 43 35 6 3 50 81 99 107 104 100 101 127 143 134 132 140 140 126 117 111 109 107 102 95 88 82 78 74 71 69 70 71 72 76 81 86 88 87 88 91 91 91 95 102 106 106 109 117 122 127 128 119 106 93 99 131 158 172 183 189 194 204 210 214 214 213 207 194 195 205 209 208 215 218 215 221 228
241 339 347 142 142 130 85 45 14 359 3 42 38 6 7 74 116 111 103 103 115 132 135 131 129 133 128 117 115 112 110 108 103 97 91 86 82 77 73 71 69 69 70 73 77 81 85 87 88 88 90 93 98 102 103 98 97 103 103 100 100 97 91 87 81 84 112 152 171 179 189 200 207 211 212 214 216 210 206 210 213 215 219 223 221 220 222
18 350 343 4 103 90 49 23 351 326 304 119 83 42 12 30 104 110 111 135 149 125 122 123 122 116 92 93 104 110 109 103 98 94 90 87 85 81 76 74 71 68 68 69 73 77 81 83 84 86 89 90 90 96 106 108 107 110 109 106 105 103 101 101 97 91 94 110 134 153 171 190 202 208 214 224 229 227 222 222 226 230 233 235 234 231 228
355 339 354 23 62 73 25 329 313 309 310 91 94 84 49 22 18 91 118 131 117 107 121 124 110 96 83 81 88 98 101 97 95 94 91 88 87 83 77 75 73 72 72 71 73 76 78 79 81 84 85 83 83 90 103 109 110 115 119 118 114 112 111 108 103 100 97 97 104 109 104 104 111 34 359 332 296 273 265 262 255 249 247 246 244 241 240
199 354 27 42 59 90 84 338 348 357 13 46 80 98 89 76 85 86 92 103 90 88 103 106 100 95 90 86 87 92 97 99 100 100 99 101 105 102 98 95 90 84 82 83 86 84 81 82 85 86 83 78 80 86 94 99 100 105 113 117 116 115 112 107 103 104 105 102 103 106 105 108 112 101 62 342 330 319 309 304 291 275 266 261 256 251 249
137 72 57 84 109 41 34 4 360 10 17 14 31 75 87 100 122 121 105 104 107 109 109 105 102 99 93 87 86 90 95 101 106 108 110 115 121 119 115 114 113 105 95 93 93 89 88 92 97 97 91 84 81 81 85 90 91 94 103 111 113 115 112 103 97 102 112 118 120 120 125 141 153 159 205 241 250 270 293 305 300 291 283 275 270 264 259
98 107 77 87 85 7 6 350 343 359 357 336 336 47 53 36 106 133 130 122 121 121 116 111 108 102 94 85 84 92 97 100 105 111 114 118 121 117 110 105 104 104 100 100 100 98 100 106 107 106 101 95 91 83 80 87 93 95 102 113 114 115 109 83 60 56 83 132 154 160 180 206 216 223 237 242 244 252 259 268 282 287 288 287 285 279 273
88 114 102 99 114 50 333 286 302 338 328 311 306 48 48 353 5 79 110 114 113 117 119 120 114 101 90 78 87 98 105 107 106 108 112 117 120 118 113 105 100 100 101 107 122 129 123 117 115 115 103 90 96 88 67 79 101 101 102 116 123 135 336 352 348 338 328 300 266 243 238 235 232 235 240 244 248 255 260 264 270 274 278 282 285 284 282
69 90 99 100 118 119 306 295 316 352 330 315 321 49 65 317 355 65 91 97 98 105 114 120 113 99 91 98 101 106 112 112 106 104 105 105 106 108 110 102 93 95 93 82 78 88 110 122 136 133 115 96 89 54 16 3 271 277 311 313 316 313 312 318 315 305 298 290 280 273 270 267 264 263 262 260 259 259 261 264 267 268 269 272 275 280 281
72 75 79 72 87 109 306 302 311 324 323 322 348 79 163 288 5 78 89 87 87 90 95 99 96 98 121 123 109 110 115 112 104 99 96 94 93 93 95 88 80 81 83 79 74 70 74 78 80 88 96 89 73 33 353 331 316 314 313 310 311 308 304 303 301 298 296 293 287 281 275 273 273 273 273 273 272 269 267 266 265 263 263 264 266 269 272
70 97 95 75 62 354 300 298 309 316 319 356 44 131 201 241 113 105 101 94 85 82 90 98 94 103 118 118 111 108 110 111 109 104 98 96 94 90 90 83 68 62 65 65 57 56 64 67 64 63 59 53 55 35 327 312 313 311 306 301 296 290 286 285 284 285 286 285 283 281 279 278 276 274 274 274 274 273 272 271 270 268 266 265 264 265 267
17 94 92 95 109 342 319 311 333 357 15 145 76 92 105 90 97 109 106 101 94 88 94 105 109 110 115 117 114 110 111 113 112 111 108 103 94 91 101 107 93 72 62 55 46 44 50 44 41 49 43 28 26 346 290 296 298 295 295 297 296 291 288 285 284 283 283 281 280 281 281 281 280 279 277 276 275 274 273 271 271 271 271 271 270 269 268
17 60 62 93 186 346 356 356 5 20 27 159 99 93 93 86 92 102 102 101 103 101 100 107 114 116 117 118 117 117 119 120 119 119 118 110 98 96 106 121 124 121 75 4 61 73 5 9 22 31 31 27 21 344 315 316 311 304 302 304 302 297 293 288 286 284 282 281 282 282 281 280 279 278 277 275 274 273 272 271 271 271 273 274 274 273 270
52 69 51 88 122 30 36 55 74 51 61 95 98 92 86 79 85 94 95 98 106 109 108 110 113 115 117 118 120 121 122 124 128 130 129 124 124 134 152 136 129 134 298 350 62 328 330 360 29 37 42 57 57 38 13 357 346 332 324 319 310 303 299 295 293 291 287 285 286 286 287 286 283 280 279 278 278 277 275 273 272 273 275 277 277 277 277
69 98 98 82 80 69 63 70 76 70 74 87 93 89 81 76 82 89 90 94 104 109 112 112 111 110 113 116 120 125 126 127 130 136 139 135 129 148 230 232 126 126 106 86 188 283 329 16 47 48 55 65 57 38 15 360 354 335 314 303 296 296 296 295 296 295 293 292 291 289 289 290 290 291 292 293 293 292 288 282 277 276 276 277 277 277 278
72 78 85 81 75 71 71 73 74 72 75 82 87 86 82 79 83 88 91 96 103 105 108 109 107 107 111 112 117 125 128 129 132 136 140 140 137 148 247 278 145 123 119 158 207 232 15 52 57 44 48 55 44 359 272 276 286 281 282 284 286 289 292 293 296 296 294 293 290 287 287 288 288 293 298 301 303 303 300 293 283 277 275 273 272 273 273
102 82 84 87 88 84 80 78 77 75 75 77 80 83 84 82 82 84 91 101 105 104 105 105 104 106 110 111 114 122 123 126 136 138 135 135 139 152 236 277 161 126 129 155 170 142 106 102 110 70 40 45 3 280 259 264 270 273 279 284 287 290 292 293 296 298 299 299 296 292 291 288 284 283 284 286 288 291 294 293 285 279 278 277 276 277 276
95 113 111 112 113 104 94 89 85 83 81 78 77 81 84 84 81 78 85 99 108 110 108 103 103 114 121 121 118 115 117 123 122 119 120 125 120 126 179 247 83 126 148 148 134 137 142 152 173 211 241 251 269 277 277 279 282 284 290 295 297 299 300 299 299 300 303 303 297 291 287 283 280 280 279 279 281 282 287 292 290 286 284 282 281 282 281
85 105 115 120 120 107 100 99 95 92 94 92 89 87 85 87 89 86 86 92 96 100 103 100 117 135 146 148 137 127 137 149 138 119 127 144 141 147 206 291 30 100 174 176 169 174 180 177 186 231 267 261 264 281 295 305 309 308 307 309 310 310 309 308 306 302 298 296 295 293 291 288 285 283 280 278 276 276 276 280 285 287 287 286 285 284 282
106 121 131 134 120 97 105 109 108 106 106 106 107 104 97 95 98 97 97 95 87 81 91 123 143 138 138 147 147 137 148 183 193 200 199 194 209 258 285 312 19 191 203 185 188 201 204 190 213 261 279 276 294 323 327 321 318 315 312 314 314 311 308 306 305 301 296 297 301 302 302 304 304 302 300 295 289 283 277 270 269 275 281 284 286 284 280
123 119 137 139 129 119 124 131 134 129 125 131 131 124 117 114 114 112 115 125 127 118 109 164 163 153 147 147 151 150 152 152 157 168 178 231 317 324 350 41 20 236 203 178 184 205 209 222 248 262 293 355 17 358 327 314 316 317 319 322 322 320 315 310 306 302 299 303 309 310 312 315 317 317 317 315 311 306 298 286 276 273 277 281 282 281 279
114 106 120 126 126 125 128 132 126 107 104 126 131 124 117 121 128 127 127 165 169 170 173 172 177 187 191 173 134 135 157 161 157 151 62 21 2 208 195 188 184 195 199 199 201 202 214 259 275 287 24 38 28 333 318 317 319 323 327 329 331 334 334 330 325 322 321 322 323 323 323 322 319 317 316 313 312 312 310 303 292 282 281 281 278 276 279
106 109 118 123 130 136 137 133 118 89 78 99 111 115 120 127 134 133 110 73 105 133 142 143 143 151 160 149 128 120 124 121 96 33 21 16 250 235 233 227 219 210 218 227 222 216 226 274 2 34 39 34 358 325 322 322 323 328 331 331 332 336 337 333 330 328 327 327 325 322 319 315 311 308 306 305 307 310 311 308 298 287 284 283 279 277 284
109 115 123 127 131 135 139 134 119 105 105 101 89 96 121 130 149 149 130 38 32 104 138 149 128 104 121 141 141 133 119 12 360 35 59 325 291 269 271 268 245 222 221 236 234 221 201 124 43 28 25 9 334 323 322 323 326 329 329 330 334 338 337 333 331 327 324 321 317 312 309 305 302 302 301 301 304 309 312 312 307 299 293 287 277 273 280
105 110 117 117 110 105 111 117 110 110 136 136 109 94 83 16 313 193 227 278 235 177 208 246 269 293 305 315 330 340 326 320 330 344 273 295 299 296 298 295 265 228 227 236 220 191 188 349 357 2 354 329 322 321 323 324 324 326 330 334 337 339 339 336 333 329 324 319 314 311 309 304 301 299 298 297 299 304 308 310 309 306 304 300 288 277 276
89 88 81 86 89 86 91 108 114 116 129 138 147 147 136 317 305 157 216 238 172 159 200 217 213 214 219 315 325 326 313 294 297 289 255 262 276 281 287 296 282 239 223 216 199 209 277 290 286 272 319 337 331 325 321 318 318 327 337 339 337 338 342 338 331 327 324 321 321 325 325 319 312 306 299 296 298 301 303 305 307 307 308 306 300 288 280
97 97 82 74 77 81 90 114 157 167 143 145 229 219 220 268 309 68 226 218 156 138 140 137 143 167 221 309 301 290 269 252 250 245 234 239 258 268 281 303 306 259 213 203 210 243 259 254 241 232 21 3 334 319 316 316 321 335 344 344 339 338 337 332 330 331 331 330 334 342 343 337 333 328 320 311 306 304 305 307 312 316 318 316 310 299 290
111 112 106 88 80 73 27 271 225 201 193 211 217 184 182 229 279 332 322 266 195 178 167 150 154 284 300 296 279 262 253 248 249 249 247 252 264 270 280 298 302 248 200 197 211 230 236 229 220 304 16 351 319 315 317 320 331 342 345 345 346 343 337 332 336 341 343 342 345 350 351 350 350 348 343 338 333 330 328 329 330 330 330 328 322 310 300
122 117 117 116 118 124 316 317 314 285 191 212 208 191 191 205 210 268 316 301 194 168 165 278 294 293 289 281 268 258 261 268 274 277 275 275 278 278 283 289 281 231 205 207 212 214 211 186 153 20 357 324 312 316 321 327 341 347 341 339 346 348 342 338 343 349 352 354 356 356 351 348 351 356 357 358 358 357 355 350 342 333 328 326 322 315 313
142 142 137 130 169 243 293 320 328 326 305 284 241 212 201 192 191 214 265 280 189 151 332 310 292 281 272 264 263 274 286 292 292 291 290 290 287 284 282 278 257 220 209 207 192 182 176 162 4 342 327 311 311 318 324 333 346 348 338 333 343 348 345 345 353 0 3 6 9 7 1 359 2 7 8 6 5 3 359 349 340 334 331 330 327 326 326
144 140 138 146 203 255 296 333 346 344 328 308 239 199 192 189 196 212 234 258 279 292 292 282 271 262 256 260 282 298 303 303 301 297 293 292 287 279 267 244 213 195 190 171 157 157 159 17 334 320 307 304 313 327 340 344 347 344 336 337 348 351 351 358 13 16 14 15 16 12 8 8 11 11 11 11 6 357 351 347 344 346 352 355 348 342 340
129 118 136 176 208 240 307 346 353 337 325 316 252 196 188 186 195 211 222 234 249 254 261 266 261 253 257 283 305 311 310 306 300 294 289 288 282 260 214 190 184 183 174 158 149 139 36 322 297 294 296 303 319 339 347 347 345 340 337 346 354 354 354 9 28 21 14 16 19 15 9 8 9 5 3 4 1 352 352 357 359 2 5 7 4 6 21
134 121 204 202 204 226 267 335 348 323 305 293 253 198 183 188 209 223 227 231 236 244 261 269 258 252 279 307 314 315 312 304 293 287 286 279 259 206 177 174 171 162 153 145 136 135 255 263 276 290 303 316 330 339 344 345 341 338 342 352 355 353 353 14 33 19 12 15 20 17 9 6 7 3 360 3 8 12 16 19 19 14 12 17 29 43 53
139 190 226 213 206 212 242 300 323 317 303 285 265 237 213 212 220 222 225 241 255 256 258 254 245 258 303 321 321 319 313 298 281 273 257 232 197 166 162 160 150 144 144 142 149 225 243 259 279 294 311 341 344 342 343 341 337 340 352 358 354 352 354 21 40 22 14 15 21 19 12 11 18 20 20 28 36 33 27 22 21 24 34 52 59 58 60
184 223 232 191 172 141 41 312 287 288 297 298 277 233 215 223 230 221 216 234 257 259 253 242 248 295 325 330 327 323 315 293 267 238 215 211 208 170 152 144 139 140 148 162 195 234 255 275 287 265 231 326 352 335 335 338 338 345 356 358 354 354 358 22 45 22 9 10 18 17 15 25 41 49 49 47 39 27 21 21 23 29 42 66 83 88 86
248 253 266 264 239 57 355 299 290 289 282 271 254 227 222 230 229 217 218 238 252 258 257 256 277 309 327 337 339 335 321 294 269 238 221 225 223 185 157 150 151 152 158 213 247 260 271 282 265 220 220 252 294 298 317 337 347 350 356 359 358 356 356 4 36 16 353 347 354 354 0 23 46 62 62 49 34 23 21 21 19 19 27 48 116 164 170
279 277 273 270 272 277 275 273 286 300 291 259 244 245 247 237 221 217 230 249 255 259 263 265 278 304 328 349 358 353 344 326 279 243 236 233 205 178 163 169 183 193 213 247 268 287 290 279 254 241 252 280 300 301 328 360 8 353 358 3 0 357 357 5 16 349 319 322 331 330 340 16 35 65 83 70 51 35 26 19 16 23 34 54 96 134 131
249 276 279 262 258 271 277 267 263 272 276 270 264 260 257 253 241 231 234 249 261 263 262 260 271 304 328 338 347 352 354 356 331 291 278 250 212 189 156 192 212 217 210 212 276 325 318 293 278 275 281 300 356 87 75 56 28 353 2 6 0 357 2 10 10 358 333 332 348 10 64 73 62 87 92 75 51 33 17 12 19 34 49 71 101 122 127
247 254 259 255 252 255 256 253 257 262 254 246 258 263 260 257 249 236 240 255 257 246 239 246 276 316 325 323 325 333 338 338 329 316 303 253 217 210 11 344 222 207 212 243 282 308 301 283 291 1 9 42 105 104 92 71 23 353 3 4 357 358 7 13 11 10 9 357 1 32 77 103 113 111 96 56 42 47 22 10 19 39 65 102 124 130 136
267 258 261 265 261 257 252 249 255 259 251 239 245 259 261 257 244 233 242 258 249 225 223 256 301 312 308 302 296 290 291 301 306 305 301 278 237 226 297 335 216 208 250 276 276 268 261 261 288 10 19 108 124 111 91 76 48 15 10 358 351 356 10 16 12 14 21 17 18 47 90 113 119 119 120 118 100 53 12 11 34 64 96 127 135 135 139
266 263 272 284 282 272 262 254 255 260 259 250 238 239 253 256 244 235 241 249 245 243 265 284 289 292 296 297 287 264 251 261 281 291 296 297 278 250 266 270 250 248 268 280 263 244 247 256 271 303 300 146 136 123 97 103 122 56 9 356 354 3 17 20 16 20 28 30 35 54 88 121 129 120 112 111 94 34 20 37 64 88 116 136 139 140 140
275 273 276 284 288 288 284 273 263 261 258 247 232 237 256 256 245 240 244 246 246 254 264 264 266 279 290 296 301 290 255 251 266 277 285 294 288 259 253 259 263 271 283 276 250 240 248 256 258 254 202 159 151 142 120 112 114 80 355 347 355 10 22 21 18 23 30 35 42 52 66 90 120 134 130 99 45 38 51 68 84 102 124 135 139 142 141
289 287 285 284 286 288 285 275 265 262 260 246 232 241 258 254 245 243 243 240 242 251 253 248 254 270 274 274 288 300 281 257 258 261 265 272 269 256 251 256 263 280 289 272 250 243 249 247 231 212 178 168 173 177 168 150 136 115 35 329 331 352 10 15 17 21 26 34 46 54 60 68 84 101 109 101 79 73 84 97 108 120 131 136 139 140 141
293 289 290 291 290 289 285 273 262 263 266 255 239 239 251 251 247 248 244 237 236 244 249 253 262 269 264 259 265 270 265 259 252 245 248 258 262 259 258 261 265 275 287 283 259 235 230 217 198 185 168 167 180 197 208 204 193 182 176 204 254 288 340 3 9 14 19 28 42 54 61 67 72 74 74 78 81 85 96 111 123 130 136 140 140 140 143
299 289 287 291 295 299 298 285 264 256 257 249 238 240 255 252 247 251 252 242 234 238 247 256 260 261 255 251 252 254 259 269 272 263 260 265 268 265 266 269 271 272 277 275 249 216 210 198 181 175 172 172 186 211 230 229 214 203 197 190 190 220 260 317 355 5 11 21 35 49 66 76 78 75 72 74 79 87 100 114 123 130 136 141 146 151 154
291 283 279 277 278 286 293 291 278 268 263 250 238 237 247 252 252 258 257 245 237 242 249 252 254 257 260 259 259 256 252 253 262 266 263 265 277 284 276 269 271 269 256 241 222 189 179 173 166 166 175 189 208 228 241 245 231 211 205 205 213 236 257 267 287 327 333 345 2 18 32 67 95 106 106 104 108 116 125 132 137 143 151 159 165 171 175
290 288 285 281 277 276 277 274 266 261 258 252 245 243 243 242 241 241 234 228 229 237 244 248 251 256 258 259 267 275 266 245 247 258 255 251 267 292 296 262 264 285 268 226 219 158 142 150 160 167 179 204 235 251 251 241 228 215 206 205 209 219 233 244 250 268 293 310 326 334 327 321 306 181 172 167 154 148 151 159 166 175 183 190 198 208 216
320 309 300 293 284 273 267 267 270 267 260 254 251 249 248 246 244 244 246 246 242 240 244 247 247 249 252 254 259 272 278 250 241 249 253 253 265 290 319 306 285 300 310 211 210 182 142 141 164 178 191 222 254 273 289 273 237 226 214 201 200 204 216 229 238 247 259 267 269 276 289 297 297 275 213 203 202 202 201 203 210 220 228 233 240 250 257
334 327 318 310 298 275 259 260 281 295 279 259 252 248 245 245 248 253 261 264 255 245 246 247 242 243 258 262 256 255 261 259 245 246 253 263 274 286 296 285 274 277 270 243 227 208 171 156 172 194 216 246 258 261 275 312 280 256 241 206 192 197 210 222 228 233 240 246 248 251 260 272 279 276 251 217 212 217 224 226 230 238 245 250 255 261 264
317 321 319 304 286 265 251 250 258 258 243 245 257 253 236 229 245 257 257 254 250 250 263 266 256 245 246 256 251 245 243 244 250 256 263 274 289 296 285 260 253 258 257 253 252 233 182 169 190 226 246 258 269 272 270 268 279 288 297 304 229 206 217 222 224 226 228 227 224 220 218 214 208 211 196 188 203 225 235 235 232 234 235 237 241 243 244